Location: Newark
(17.9939°S, 31.0481°E)
Time: 19:19:29
(UTC+00:00)

S-56A Canister/Altair - Visible Passes

Search period start: 11 November 2019 00:00
Search period end: 21 November 2019 00:00
Orbit: 634 x 2498 km, 38.9° (Epoch: 10 November)

Date Brightness Start Highest point End Pass type
(mag) Time Alt. Az. Time Alt. Az. Time Alt. Az.
11 Nov 9.4 02:46:14 10° NW 02:54:04 64° NE 03:06:03 10° ESE visible
12 Nov 9.4 02:14:01 10° NNW 02:21:10 53° NE 02:32:06 10° ESE visible
13 Nov 9.5 01:43:21 18° NNW 01:48:22 43° NE 01:58:08 10° ESE visible
14 Nov 9.5 01:12:39 25° N 01:15:40 34° NE 01:24:08 10° ESE visible
15 Nov 9.6 00:41:56 25° NE 00:43:03 26° NE 00:50:04 10° ESE visible
15 Nov 9.0 02:39:32 10° WNW 02:46:56 70° SSW 02:58:28 10° SE visible
16 Nov 10.0 00:11:10 19° ENE 00:11:10 19° ENE 00:15:52 10° E visible
16 Nov 8.7 02:08:35 20° WNW 02:13:55 79° SW 02:24:44 10° SE visible
16 Nov 10.6 23:40:22 12° ENE 23:40:22 12° ENE 23:41:18 10° E visible
17 Nov 8.4 01:37:47 36° NW 01:41:00 90° SW 01:51:03 10° SE visible
18 Nov 8.1 01:06:57 61° NNW 01:08:12 77° NE 01:17:26 10° SE visible
19 Nov 8.4 00:36:04 61° ENE 00:36:04 61° ENE 00:43:50 10° ESE visible
19 Nov 9.7 02:34:00 10° W 02:40:43 38° SSW 02:50:34 10° SE visible
20 Nov 9.3 00:05:09 36° E 00:05:09 36° E 00:10:16 10° ESE visible
20 Nov 9.4 02:02:34 17° W 02:07:35 40° SSW 02:16:53 10° SE visible
20 Nov 10.1 23:34:12 20° E 23:34:12 20° E 23:36:44 10° ESE visible
